iso_date,epoch_date,Year,Hour,Min,DOY,POS_DOY,Lat,Lon,BP,Ts,Ta,has_bp,has_ts,has_ta,BuoyID,Buoy_Type,Buoy_Owner,Logistics,Hemisphere
2012-04-29T13:49:26Z,1335707366,2012,13,50,120.576,120.576,74.7187,-94.9858,1011.5,-999.00,12.17,yes,no,yes,300025010711760,IMB,CRREL,unknown,North
2012-04-29T13:59:31Z,1335707971,2012,14,0,120.583,120.583,74.7187,-94.9858,1011.33,-999.00,2.85,yes,no,yes,300025010711760,IMB,CRREL,unknown,North
2012-04-29T15:00:00Z,1335711600,2012,15,0,120.625,120.625,74.7188,-94.9861,1011.55,-999.00,-6.82,yes,no,yes,300025010711760,IMB,CRREL,unknown,North
2012-04-29T15:30:14Z,1335713414,2012,15,30,120.646,120.646,74.7187,-94.9859,1011.64,-999.00,-6.57,yes,no,yes,300025010711760,IMB,CRREL,unknown,North
2012-05-04T18:24:28Z,1336155869,2012,18,25,125.767,125.767,86.1099,-78.0559,1025.42,-999.00,-6.13,yes,no,yes,300025010711760,IMB,CRREL,unknown,North
2012-05-04T18:30:14Z,1336156214,2012,18,30,125.771,125.771,86.1098,-78.0553,1025.49,-999.00,-13.1,yes,no,yes,300025010711760,IMB,CRREL,unknown,North
2012-05-04T18:54:43Z,1336157683,2012,18,55,125.788,125.788,86.1096,-78.0581,1025.42,-999.00,-17.22,yes,no,yes,300025010711760,IMB,CRREL,unknown,North
2012-05-04T19:00:28Z,1336158029,2012,19,0,125.792,125.792,86.1094,-78.061,1025.42,-999.00,-17.25,yes,no,yes,300025010711760,IMB,CRREL,unknown,North
2012-05-04T19:59:31Z,1336161571,2012,20,0,125.833,125.833,86.109,-78.0594,1025.51,-999.00,-17.0,yes,no,yes,300025010711760,IMB,CRREL,unknown,North
2012-05-04T21:00:00Z,1336165200,2012,21,0,125.875,125.875,86.1084,-78.0563,1025.27,-999.00,-17.21,yes,no,yes,300025010711760,IMB,CRREL,unknown,North
2012-05-04T22:00:28Z,1336168829,2012,22,0,125.917,125.917,86.1078,-78.0534,1025.16,-999.00,-16.61,yes,no,yes,300025010711760,IMB,CRREL,unknown,North
2012-05-04T22:59:31Z,1336172371,2012,23,0,125.958,125.958,86.1074,-78.0479,1024.99,-999.00,-17.52,yes,no,yes,300025010711760,IMB,CRREL,unknown,North
2012-05-05T00:00:00Z,1336176000,2012,0,0,126.0,126.0,86.107,-78.0424,1024.78,-999.00,-18.21,yes,no,yes,300025010711760,IMB,CRREL,unknown,North
2012-05-05T01:00:28Z,1336179629,2012,1,0,126.042,126.042,86.1065,-78.0367,1024.67,-999.00,-18.22,yes,no,yes,300025010711760,IMB,CRREL,unknown,North
2012-05-05T01:59:31Z,1336183171,2012,2,0,126.083,126.083,86.1061,-78.0333,1024.57,-999.00,-19.02,yes,no,yes,300025010711760,IMB,CRREL,unknown,North
2012-05-05T03:00:00Z,1336186800,2012,3,0,126.125,126.125,86.1056,-78.031,1024.38,-999.00,-18.44,yes,no,yes,300025010711760,IMB,CRREL,unknown,North
2012-05-05T04:00:28Z,1336190429,2012,4,0,126.167,126.167,86.1052,-78.0295,1024.0,-999.00,-18.68,yes,no,yes,300025010711760,IMB,CRREL,unknown,North
2012-05-05T04:59:31Z,1336193971,2012,5,0,126.208,126.208,86.1049,-78.0324,1023.73,-999.00,-18.8,yes,no,yes,300025010711760,IMB,CRREL,unknown,North
2012-05-05T06:00:00Z,1336197600,2012,6,0,126.25,126.25,86.1046,-78.0339,1024.01,-999.00,-18.02,yes,no,yes,300025010711760,IMB,CRREL,unknown,North
2012-05-05T07:00:28Z,1336201229,2012,7,0,126.292,126.292,86.1043,-78.0342,1023.73,-999.00,-18.17,yes,no,yes,300025010711760,IMB,CRREL,unknown,North
2012-05-05T07:59:31Z,1336204771,2012,8,0,126.333,126.333,86.1041,-78.0357,1023.34,-999.00,-17.24,yes,no,yes,300025010711760,IMB,CRREL,unknown,North
2012-05-05T09:00:00Z,1336208400,2012,9,0,126.375,126.375,86.1041,-78.0376,1022.96,-999.00,-16.7,yes,no,yes,300025010711760,IMB,CRREL,unknown,North
2012-05-05T10:00:28Z,1336212029,2012,10,0,126.417,126.417,86.1044,-78.0414,1022.75,-999.00,-16.22,yes,no,yes,300025010711760,IMB,CRREL,unknown,North
2012-05-05T10:59:31Z,1336215571,2012,11,0,126.458,126.458,86.1046,-78.0463,1022.54,-999.00,-15.98,yes,no,yes,300025010711760,IMB,CRREL,unknown,North
2012-05-05T12:00:00Z,1336219200,2012,12,0,126.5,126.5,86.1052,-78.049,1022.18,-999.00,-15.49,yes,no,yes,300025010711760,IMB,CRREL,unknown,North
2012-05-05T13:00:28Z,1336222829,2012,13,0,126.542,126.542,86.1059,-78.0504,1022.18,-999.00,-14.99,yes,no,yes,300025010711760,IMB,CRREL,unknown,North
2012-05-05T13:59:31Z,1336226371,2012,14,0,126.583,126.583,86.1063,-78.0568,1022.03,-999.00,-14.61,yes,no,yes,300025010711760,IMB,CRREL,unknown,North
2012-05-05T15:00:00Z,1336230000,2012,15,0,126.625,126.625,86.1076,-78.0593,1022.0,-999.00,-14.87,yes,no,yes,300025010711760,IMB,CRREL,unknown,North
2012-05-05T16:00:28Z,1336233629,2012,16,0,126.667,126.667,86.1085,-78.063,1021.71,-999.00,-14.63,yes,no,yes,300025010711760,IMB,CRREL,unknown,North
2012-05-05T16:59:31Z,1336237171,2012,17,0,126.708,126.708,86.1095,-78.0661,1021.87,-999.00,-14.12,yes,no,yes,300025010711760,IMB,CRREL,unknown,North
2012-05-05T18:00:00Z,1336240800,2012,18,0,126.75,126.75,86.1107,-78.0698,1021.76,-999.00,-14.87,yes,no,yes,300025010711760,IMB,CRREL,unknown,North
2012-05-05T19:00:28Z,1336244429,2012,19,0,126.792,126.792,86.112,-78.073,1021.62,-999.00,-14.65,yes,no,yes,300025010711760,IMB,CRREL,unknown,North
2012-05-05T19:59:31Z,1336247971,2012,20,0,126.833,126.833,86.1135,-78.0776,1021.48,-999.00,-14.18,yes,no,yes,300025010711760,IMB,CRREL,unknown,North
2012-05-05T21:00:00Z,1336251600,2012,21,0,126.875,126.875,86.115,-78.0783,1021.27,-999.00,-14.31,yes,no,yes,300025010711760,IMB,CRREL,unknown,North
2012-05-05T22:00:28Z,1336255229,2012,22,0,126.917,126.917,86.1165,-78.0728,1021.34,-999.00,-14.3,yes,no,yes,300025010711760,IMB,CRREL,unknown,North
2012-05-05T22:59:31Z,1336258771,2012,23,0,126.958,126.958,86.1177,-78.0672,1021.48,-999.00,-14.26,yes,no,yes,300025010711760,IMB,CRREL,unknown,North
2012-05-06T00:00:00Z,1336262400,2012,0,0,127.0,127.0,86.1188,-78.0598,1021.48,-999.00,-14.19,yes,no,yes,300025010711760,IMB,CRREL,unknown,North
2012-05-06T01:00:28Z,1336266029,2012,1,0,127.042,127.042,86.1196,-78.052,1021.48,-999.00,-14.74,yes,no,yes,300025010711760,IMB,CRREL,unknown,North
2012-05-06T01:59:31Z,1336269571,2012,2,0,127.083,127.083,86.1203,-78.0452,1021.63,-999.00,-14.01,yes,no,yes,300025010711760,IMB,CRREL,unknown,North
2012-05-06T03:00:00Z,1336273200,2012,3,0,127.125,127.125,86.1207,-78.0439,1021.55,-999.00,-13.94,yes,no,yes,300025010711760,IMB,CRREL,unknown,North
2012-05-06T04:00:28Z,1336276829,2012,4,0,127.167,127.167,86.1208,-78.0419,1021.56,-999.00,-14.57,yes,no,yes,300025010711760,IMB,CRREL,unknown,North
2012-05-06T04:59:31Z,1336280371,2012,5,0,127.208,127.208,86.1211,-78.0399,1021.6,-999.00,-14.12,yes,no,yes,300025010711760,IMB,CRREL,unknown,North
2012-05-06T06:00:00Z,1336284000,2012,6,0,127.25,127.25,86.1213,-78.0361,1021.68,-999.00,-14.92,yes,no,yes,300025010711760,IMB,CRREL,unknown,North
2012-05-06T07:00:28Z,1336287629,2012,7,0,127.292,127.292,86.1215,-78.0297,1021.7,-999.00,-15.54,yes,no,yes,300025010711760,IMB,CRREL,unknown,North
2012-05-06T07:59:31Z,1336291171,2012,8,0,127.333,127.333,86.1218,-78.0208,1021.69,-999.00,-15.73,yes,no,yes,300025010711760,IMB,CRREL,unknown,North
2012-05-06T09:00:00Z,1336294800,2012,9,0,127.375,127.375,86.1221,-78.0109,1021.76,-999.00,-16.47,yes,no,yes,300025010711760,IMB,CRREL,unknown,North
2012-05-06T10:00:28Z,1336298429,2012,10,0,127.417,127.417,86.1223,-78.0,1021.76,-999.00,-15.37,yes,no,yes,300025010711760,IMB,CRREL,unknown,North
2012-05-06T10:59:31Z,1336301971,2012,11,0,127.458,127.458,86.1224,-77.9867,1021.97,-999.00,-13.92,yes,no,yes,300025010711760,IMB,CRREL,unknown,North
2012-05-06T12:00:00Z,1336305600,2012,12,0,127.5,127.5,86.1226,-77.9719,1021.74,-999.00,-13.89,yes,no,yes,300025010711760,IMB,CRREL,unknown,North
2012-05-06T13:00:28Z,1336309229,2012,13,0,127.542,127.542,86.1227,-77.9601,1021.77,-999.00,-13.14,yes,no,yes,300025010711760,IMB,CRREL,unknown,North
2012-05-06T13:59:31Z,1336312771,2012,14,0,127.583,127.583,86.1227,-77.9466,1021.79,-999.00,-13.22,yes,no,yes,300025010711760,IMB,CRREL,unknown,North
2012-05-06T15:00:00Z,1336316400,2012,15,0,127.625,127.625,86.1225,-77.9359,1021.69,-999.00,-13.3,yes,no,yes,300025010711760,IMB,CRREL,unknown,North
2012-05-06T16:00:28Z,1336320029,2012,16,0,127.667,127.667,86.1223,-77.9213,1021.69,-999.00,-13.12,yes,no,yes,300025010711760,IMB,CRREL,unknown,North
2012-05-06T16:59:31Z,1336323571,2012,17,0,127.708,127.708,86.1221,-77.9112,1021.48,-999.00,-13.07,yes,no,yes,300025010711760,IMB,CRREL,unknown,North
2012-05-06T18:00:00Z,1336327200,2012,18,0,127.75,127.75,86.1219,-77.8974,1021.41,-999.00,-12.91,yes,no,yes,300025010711760,IMB,CRREL,unknown,North
2012-05-06T19:00:28Z,1336330829,2012,19,0,127.792,127.792,86.1216,-77.8805,1021.41,-999.00,-13.14,yes,no,yes,300025010711760,IMB,CRREL,unknown,North
2012-05-06T19:59:31Z,1336334371,2012,20,0,127.833,127.833,86.1213,-77.8607,1021.51,-999.00,-13.0,yes,no,yes,300025010711760,IMB,CRREL,unknown,North
2012-05-06T21:00:00Z,1336338000,2012,21,0,127.875,127.875,86.121,-77.8393,1021.41,-999.00,-13.6,yes,no,yes,300025010711760,IMB,CRREL,unknown,North
2012-05-06T22:00:28Z,1336341629,2012,22,0,127.917,127.917,86.1205,-77.8157,1021.55,-999.00,-14.93,yes,no,yes,300025010711760,IMB,CRREL,unknown,North
2012-05-06T22:59:31Z,1336345171,2012,23,0,127.958,127.958,86.12,-77.7892,1021.62,-999.00,-16.22,yes,no,yes,300025010711760,IMB,CRREL,unknown,North
2012-05-07T00:00:00Z,1336348800,2012,0,0,128.0,128.0,86.1196,-77.7639,1021.9,-999.00,-16.79,yes,no,yes,300025010711760,IMB,CRREL,unknown,North
2012-05-07T01:00:28Z,1336352429,2012,1,0,128.042,128.042,86.1192,-77.7404,1021.84,-999.00,-18.03,yes,no,yes,300025010711760,IMB,CRREL,unknown,North
2012-05-07T01:59:31Z,1336355971,2012,2,0,128.083,128.083,86.119,-77.7211,1021.76,-999.00,-18.73,yes,no,yes,300025010711760,IMB,CRREL,unknown,North
2012-05-07T03:00:00Z,1336359600,2012,3,0,128.125,128.125,86.1188,-77.7028,1021.62,-999.00,-19.4,yes,no,yes,300025010711760,IMB,CRREL,unknown,North
2012-05-07T04:00:28Z,1336363229,2012,4,0,128.167,128.167,86.1187,-77.6893,1021.76,-999.00,-19.29,yes,no,yes,300025010711760,IMB,CRREL,unknown,North
2012-05-07T04:59:31Z,1336366771,2012,5,0,128.208,128.208,86.1188,-77.671,1021.57,-999.00,-20.02,yes,no,yes,300025010711760,IMB,CRREL,unknown,North
2012-05-07T06:00:00Z,1336370400,2012,6,0,128.25,128.25,86.1191,-77.6537,1021.41,-999.00,-20.14,yes,no,yes,300025010711760,IMB,CRREL,unknown,North
2012-05-07T07:00:28Z,1336374029,2012,7,0,128.292,128.292,86.1194,-77.6398,1021.42,-999.00,-20.43,yes,no,yes,300025010711760,IMB,CRREL,unknown,North
2012-05-07T07:59:31Z,1336377571,2012,8,0,128.333,128.333,86.1196,-77.6213,1021.45,-999.00,-21.27,yes,no,yes,300025010711760,IMB,CRREL,unknown,North
2012-05-07T09:00:00Z,1336381200,2012,9,0,128.375,128.375,86.1196,-77.605,1021.28,-999.00,-21.6,yes,no,yes,300025010711760,IMB,CRREL,unknown,North
2012-05-07T10:00:28Z,1336384829,2012,10,0,128.417,128.417,86.1202,-77.573,1021.31,-999.00,-21.59,yes,no,yes,300025010711760,IMB,CRREL,unknown,North
2012-05-07T10:59:31Z,1336388371,2012,11,0,128.458,128.458,86.1206,-77.5443,1021.1,-999.00,-22.07,yes,no,yes,300025010711760,IMB,CRREL,unknown,North
2012-05-07T12:00:00Z,1336392000,2012,12,0,128.5,128.5,86.1212,-77.512,1020.78,-999.00,-21.75,yes,no,yes,300025010711760,IMB,CRREL,unknown,North
2012-05-07T13:00:28Z,1336395629,2012,13,0,128.542,128.542,86.1222,-77.4834,1020.64,-999.00,-20.82,yes,no,yes,300025010711760,IMB,CRREL,unknown,North
2012-05-07T13:59:31Z,1336399171,2012,14,0,128.583,128.583,86.1232,-77.459,1020.43,-999.00,-20.72,yes,no,yes,300025010711760,IMB,CRREL,unknown,North
2012-05-07T15:00:00Z,1336402800,2012,15,0,128.625,128.625,86.1243,-77.4388,1020.15,-999.00,-20.71,yes,no,yes,300025010711760,IMB,CRREL,unknown,North
2012-05-07T16:00:28Z,1336406429,2012,16,0,128.667,128.667,86.1255,-77.4117,1019.87,-999.00,-20.44,yes,no,yes,300025010711760,IMB,CRREL,unknown,North
2012-05-07T16:59:31Z,1336409971,2012,17,0,128.708,128.708,86.1271,-77.3861,1019.31,-999.00,-20.32,yes,no,yes,300025010711760,IMB,CRREL,unknown,North
2012-05-07T18:00:00Z,1336413600,2012,18,0,128.75,128.75,86.129,-77.3584,1019.17,-999.00,-20.0,yes,no,yes,300025010711760,IMB,CRREL,unknown,North
2012-05-07T19:00:28Z,1336417229,2012,19,0,128.792,128.792,86.1311,-77.3308,1018.75,-999.00,-20.01,yes,no,yes,300025010711760,IMB,CRREL,unknown,North
2012-05-07T19:59:31Z,1336420771,2012,20,0,128.833,128.833,86.1335,-77.3035,1018.5,-999.00,-19.95,yes,no,yes,300025010711760,IMB,CRREL,unknown,North
2012-05-07T21:00:00Z,1336424400,2012,21,0,128.875,128.875,86.1362,-77.2782,1017.9,-999.00,-19.96,yes,no,yes,300025010711760,IMB,CRREL,unknown,North
2012-05-07T22:00:28Z,1336428029,2012,22,0,128.917,128.917,86.1391,-77.2513,1017.48,-999.00,-19.99,yes,no,yes,300025010711760,IMB,CRREL,unknown,North
2012-05-07T22:59:31Z,1336431571,2012,23,0,128.958,128.958,86.1421,-77.2245,1016.96,-999.00,-19.85,yes,no,yes,300025010711760,IMB,CRREL,unknown,North
2012-05-08T00:00:00Z,1336435200,2012,0,0,129.0,129.0,86.1452,-77.197,1016.22,-999.00,-19.55,yes,no,yes,300025010711760,IMB,CRREL,unknown,North
2012-05-08T01:00:28Z,1336438829,2012,1,0,129.042,129.042,86.1482,-77.1705,1015.52,-999.00,-18.78,yes,no,yes,300025010711760,IMB,CRREL,unknown,North
2012-05-08T01:59:31Z,1336442371,2012,2,0,129.083,129.083,86.1515,-77.1448,1014.95,-999.00,-18.12,yes,no,yes,300025010711760,IMB,CRREL,unknown,North
2012-05-08T03:00:00Z,1336446000,2012,3,0,129.125,129.125,86.1549,-77.1185,1013.9,-999.00,-17.84,yes,no,yes,300025010711760,IMB,CRREL,unknown,North
2012-05-08T04:00:28Z,1336449629,2012,4,0,129.167,129.167,86.1582,-77.0955,1013.27,-999.00,-17.48,yes,no,yes,300025010711760,IMB,CRREL,unknown,North
2012-05-08T04:59:31Z,1336453171,2012,5,0,129.208,129.208,86.1615,-77.0761,1012.5,-999.00,-17.08,yes,no,yes,300025010711760,IMB,CRREL,unknown,North
2012-05-08T06:00:00Z,1336456800,2012,6,0,129.25,129.25,86.1648,-77.0596,1012.0,-999.00,-16.84,yes,no,yes,300025010711760,IMB,CRREL,unknown,North
2012-05-08T07:00:28Z,1336460429,2012,7,0,129.292,129.292,86.1682,-77.044,1011.38,-999.00,-16.22,yes,no,yes,300025010711760,IMB,CRREL,unknown,North
2012-05-08T07:59:31Z,1336463971,2012,8,0,129.333,129.333,86.1717,-77.0262,1011.05,-999.00,-16.93,yes,no,yes,300025010711760,IMB,CRREL,unknown,North
2012-05-08T09:00:00Z,1336467600,2012,9,0,129.375,129.375,86.1752,-77.0073,1010.81,-999.00,-17.46,yes,no,yes,300025010711760,IMB,CRREL,unknown,North
2012-05-08T10:00:28Z,1336471229,2012,10,0,129.417,129.417,86.1788,-76.9889,1010.53,-999.00,-17.49,yes,no,yes,300025010711760,IMB,CRREL,unknown,North
2012-05-08T10:59:31Z,1336474771,2012,11,0,129.458,129.458,86.1826,-76.9701,1010.25,-999.00,-17.41,yes,no,yes,300025010711760,IMB,CRREL,unknown,North
2012-05-08T12:00:00Z,1336478400,2012,12,0,129.5,129.5,86.1867,-76.9495,1009.9,-999.00,-17.16,yes,no,yes,300025010711760,IMB,CRREL,unknown,North
2012-05-08T13:00:28Z,1336482029,2012,13,0,129.542,129.542,86.1909,-76.9281,1009.76,-999.00,-17.08,yes,no,yes,300025010711760,IMB,CRREL,unknown,North
2012-05-08T13:59:31Z,1336485571,2012,14,0,129.583,129.583,86.1952,-76.9114,1009.69,-999.00,-16.73,yes,no,yes,300025010711760,IMB,CRREL,unknown,North
2012-05-08T15:00:00Z,1336489200,2012,15,0,129.625,129.625,86.1996,-76.8983,1009.12,-999.00,-16.07,yes,no,yes,300025010711760,IMB,CRREL,unknown,North
2012-05-08T16:00:28Z,1336492829,2012,16,0,129.667,129.667,86.2042,-76.8884,1009.05,-999.00,-15.7,yes,no,yes,300025010711760,IMB,CRREL,unknown,North
2012-05-08T16:59:31Z,1336496371,2012,17,0,129.708,129.708,86.209,-76.8834,1008.84,-999.00,-15.52,yes,no,yes,300025010711760,IMB,CRREL,unknown,North
2012-05-08T18:00:00Z,1336500000,2012,18,0,129.75,129.75,86.2139,-76.8815,1008.7,-999.00,-15.35,yes,no,yes,300025010711760,IMB,CRREL,unknown,North
2012-05-08T19:00:28Z,1336503629,2012,19,0,129.792,129.792,86.2187,-76.8843,1008.53,-999.00,-15.18,yes,no,yes,300025010711760,IMB,CRREL,unknown,North
2012-05-08T19:59:31Z,1336507171,2012,20,0,129.833,129.833,86.2232,-76.89,1008.35,-999.00,-15.24,yes,no,yes,300025010711760,IMB,CRREL,unknown,North
2012-05-08T21:00:00Z,1336510800,2012,21,0,129.875,129.875,86.2277,-76.8973,1008.35,-999.00,-15.11,yes,no,yes,300025010711760,IMB,CRREL,unknown,North
2012-05-08T22:00:28Z,1336514429,2012,22,0,129.917,129.917,86.2318,-76.9078,1008.27,-999.00,-15.18,yes,no,yes,300025010711760,IMB,CRREL,unknown,North
2012-05-08T22:59:31Z,1336517971,2012,23,0,129.958,129.958,86.2357,-76.9189,1008.49,-999.00,-15.13,yes,no,yes,300025010711760,IMB,CRREL,unknown,North
2012-05-09T00:00:00Z,1336521600,2012,0,0,130.0,130.0,86.2393,-76.9319,1008.49,-999.00,-15.4,yes,no,yes,300025010711760,IMB,CRREL,unknown,North
2012-05-09T01:00:28Z,1336525229,2012,1,0,130.042,130.042,86.2426,-76.9452,1008.53,-999.00,-15.49,yes,no,yes,300025010711760,IMB,CRREL,unknown,North
2012-05-09T01:59:31Z,1336528771,2012,2,0,130.083,130.083,86.2455,-76.9611,1008.77,-999.00,-15.84,yes,no,yes,300025010711760,IMB,CRREL,unknown,North
2012-05-09T03:00:00Z,1336532400,2012,3,0,130.125,130.125,86.2483,-76.981,1008.98,-999.00,-16.47,yes,no,yes,300025010711760,IMB,CRREL,unknown,North
2012-05-09T04:00:28Z,1336536029,2012,4,0,130.167,130.167,86.251,-77.0038,1009.26,-999.00,-16.99,yes,no,yes,300025010711760,IMB,CRREL,unknown,North
2012-05-09T04:59:31Z,1336539571,2012,5,0,130.208,130.208,86.2536,-77.0268,1009.47,-999.00,-17.64,yes,no,yes,300025010711760,IMB,CRREL,unknown,North
2012-05-09T06:00:00Z,1336543200,2012,6,0,130.25,130.25,86.256,-77.0517,1009.54,-999.00,-18.0,yes,no,yes,300025010711760,IMB,CRREL,unknown,North
2012-05-09T07:00:28Z,1336546829,2012,7,0,130.292,130.292,86.2583,-77.075,1010.25,-999.00,-18.47,yes,no,yes,300025010711760,IMB,CRREL,unknown,North
2012-05-09T07:59:31Z,1336550371,2012,8,0,130.333,130.333,86.2605,-77.0951,1010.74,-999.00,-18.39,yes,no,yes,300025010711760,IMB,CRREL,unknown,North
2012-05-09T09:00:00Z,1336554000,2012,9,0,130.375,130.375,86.2625,-77.1117,1010.84,-999.00,-18.39,yes,no,yes,300025010711760,IMB,CRREL,unknown,North
2012-05-09T10:00:28Z,1336557629,2012,10,0,130.417,130.417,86.2644,-77.125,1011.51,-999.00,-18.32,yes,no,yes,300025010711760,IMB,CRREL,unknown,North
2012-05-09T10:59:31Z,1336561171,2012,11,0,130.458,130.458,86.2661,-77.1356,1011.93,-999.00,-18.36,yes,no,yes,300025010711760,IMB,CRREL,unknown,North
2012-05-09T12:00:00Z,1336564800,2012,12,0,130.5,130.5,86.2678,-77.1448,1012.42,-999.00,-18.26,yes,no,yes,300025010711760,IMB,CRREL,unknown,North
2012-05-09T13:00:28Z,1336568429,2012,13,0,130.542,130.542,86.2694,-77.148,1012.85,-999.00,-18.02,yes,no,yes,300025010711760,IMB,CRREL,unknown,North
2012-05-09T13:59:31Z,1336571971,2012,14,0,130.583,130.583,86.271,-77.1503,1013.55,-999.00,-17.82,yes,no,yes,300025010711760,IMB,CRREL,unknown,North
2012-05-09T15:00:00Z,1336575600,2012,15,0,130.625,130.625,86.2727,-77.1538,1013.97,-999.00,-17.69,yes,no,yes,300025010711760,IMB,CRREL,unknown,North
2012-05-09T16:00:28Z,1336579229,2012,16,0,130.667,130.667,86.2743,-77.156,1014.39,-999.00,-17.34,yes,no,yes,300025010711760,IMB,CRREL,unknown,North
2012-05-09T16:59:31Z,1336582771,2012,17,0,130.708,130.708,86.2761,-77.1596,1014.81,-999.00,-17.01,yes,no,yes,300025010711760,IMB,CRREL,unknown,North
2012-05-09T18:00:00Z,1336586400,2012,18,0,130.75,130.75,86.278,-77.1618,1015.3,-999.00,-16.79,yes,no,yes,300025010711760,IMB,CRREL,unknown,North
2012-05-09T19:00:28Z,1336590029,2012,19,0,130.792,130.792,86.2799,-77.1659,1016.01,-999.00,-16.54,yes,no,yes,300025010711760,IMB,CRREL,unknown,North
2012-05-09T19:59:31Z,1336593571,2012,20,0,130.833,130.833,86.2819,-77.1663,1016.32,-999.00,-16.22,yes,no,yes,300025010711760,IMB,CRREL,unknown,North
2012-05-09T21:00:00Z,1336597200,2012,21,0,130.875,130.875,86.2838,-77.1648,1016.99,-999.00,-16.12,yes,no,yes,300025010711760,IMB,CRREL,unknown,North
2012-05-09T22:00:28Z,1336600829,2012,22,0,130.917,130.917,86.2851,-77.1571,1017.41,-999.00,-15.9,yes,no,yes,300025010711760,IMB,CRREL,unknown,North
2012-05-09T22:59:31Z,1336604371,2012,23,0,130.958,130.958,86.2863,-77.1476,1017.83,-999.00,-15.93,yes,no,yes,300025010711760,IMB,CRREL,unknown,North
2012-05-10T00:00:00Z,1336608000,2012,0,0,131.0,131.0,86.2874,-77.1353,1018.46,-999.00,-15.93,yes,no,yes,300025010711760,IMB,CRREL,unknown,North
2012-05-10T01:00:28Z,1336611629,2012,1,0,131.042,131.042,86.2884,-77.1237,1018.88,-999.00,-15.87,yes,no,yes,300025010711760,IMB,CRREL,unknown,North
2012-05-10T01:59:31Z,1336615171,2012,2,0,131.083,131.083,86.2891,-77.1091,1019.13,-999.00,-15.49,yes,no,yes,300025010711760,IMB,CRREL,unknown,North
2012-05-10T03:00:00Z,1336618800,2012,3,0,131.125,131.125,86.2899,-77.095,1019.51,-999.00,-14.71,yes,no,yes,300025010711760,IMB,CRREL,unknown,North
2012-05-10T04:00:28Z,1336622429,2012,4,0,131.167,131.167,86.2906,-77.0801,1019.49,-999.00,-13.96,yes,no,yes,300025010711760,IMB,CRREL,unknown,North
2012-05-10T04:59:31Z,1336625971,2012,5,0,131.208,131.208,86.2911,-77.0643,1019.59,-999.00,-13.34,yes,no,yes,300025010711760,IMB,CRREL,unknown,North
2012-05-10T06:00:00Z,1336629600,2012,6,0,131.25,131.25,86.2919,-77.0489,1020.0,-999.00,-12.51,yes,no,yes,300025010711760,IMB,CRREL,unknown,North
2012-05-10T07:00:28Z,1336633229,2012,7,0,131.292,131.292,86.2927,-77.034,1020.28,-999.00,-12.15,yes,no,yes,300025010711760,IMB,CRREL,unknown,North
2012-05-10T07:59:31Z,1336636771,2012,8,0,131.333,131.333,86.2936,-77.0181,1020.57,-999.00,-11.91,yes,no,yes,300025010711760,IMB,CRREL,unknown,North
2012-05-10T09:00:00Z,1336640400,2012,9,0,131.375,131.375,86.2943,-77.0005,1020.92,-999.00,-11.79,yes,no,yes,300025010711760,IMB,CRREL,unknown,North
2012-05-10T10:00:28Z,1336644029,2012,10,0,131.417,131.417,86.295,-76.9831,1021.2,-999.00,-11.69,yes,no,yes,300025010711760,IMB,CRREL,unknown,North
2012-05-10T10:59:31Z,1336647571,2012,11,0,131.458,131.458,86.2959,-76.9643,1021.62,-999.00,-11.88,yes,no,yes,300025010711760,IMB,CRREL,unknown,North
2012-05-10T12:00:00Z,1336651200,2012,12,0,131.5,131.5,86.2965,-76.9464,1021.76,-999.00,-11.78,yes,no,yes,300025010711760,IMB,CRREL,unknown,North
2012-05-10T13:00:28Z,1336654829,2012,13,0,131.542,131.542,86.2974,-76.9259,1021.93,-999.00,-11.9,yes,no,yes,300025010711760,IMB,CRREL,unknown,North
2012-05-10T13:59:31Z,1336658371,2012,14,0,131.583,131.583,86.2984,-76.905,1022.11,-999.00,-12.34,yes,no,yes,300025010711760,IMB,CRREL,unknown,North
2012-05-10T15:00:00Z,1336662000,2012,15,0,131.625,131.625,86.2995,-76.8861,1022.15,-999.00,-12.66,yes,no,yes,300025010711760,IMB,CRREL,unknown,North
2012-05-10T16:00:28Z,1336665629,2012,16,0,131.667,131.667,86.3006,-76.8659,1022.18,-999.00,-12.77,yes,no,yes,300025010711760,IMB,CRREL,unknown,North
2012-05-10T16:59:31Z,1336669171,2012,17,0,131.708,131.708,86.3017,-76.8493,1022.25,-999.00,-12.77,yes,no,yes,300025010711760,IMB,CRREL,unknown,North
2012-05-10T18:00:00Z,1336672800,2012,18,0,131.75,131.75,86.3027,-76.8368,1022.53,-999.00,-12.85,yes,no,yes,300025010711760,IMB,CRREL,unknown,North
2012-05-10T19:00:28Z,1336676429,2012,19,0,131.792,131.792,86.3037,-76.8255,1022.6,-999.00,-12.71,yes,no,yes,300025010711760,IMB,CRREL,unknown,North
2012-05-10T19:59:31Z,1336679971,2012,20,0,131.833,131.833,86.3045,-76.8175,1022.81,-999.00,-12.76,yes,no,yes,300025010711760,IMB,CRREL,unknown,North
2012-05-10T21:00:00Z,1336683600,2012,21,0,131.875,131.875,86.3053,-76.8102,1022.95,-999.00,-12.92,yes,no,yes,300025010711760,IMB,CRREL,unknown,North
2012-05-10T22:00:28Z,1336687229,2012,22,0,131.917,131.917,86.3059,-76.8017,1023.23,-999.00,-13.26,yes,no,yes,300025010711760,IMB,CRREL,unknown,North
2012-05-10T22:59:31Z,1336690771,2012,23,0,131.958,131.958,86.3066,-76.7911,1023.44,-999.00,-13.12,yes,no,yes,300025010711760,IMB,CRREL,unknown,North
2012-05-11T00:00:00Z,1336694400,2012,0,0,132.0,132.0,86.3069,-76.7785,1023.55,-999.00,-13.29,yes,no,yes,300025010711760,IMB,CRREL,unknown,North
2012-05-11T01:00:28Z,1336698029,2012,1,0,132.042,132.042,86.3072,-76.7639,1023.44,-999.00,-13.65,yes,no,yes,300025010711760,IMB,CRREL,unknown,North
2012-05-11T01:59:31Z,1336701571,2012,2,0,132.083,132.083,86.3073,-76.7494,1023.44,-999.00,-13.83,yes,no,yes,300025010711760,IMB,CRREL,unknown,North
2012-05-11T03:00:00Z,1336705200,2012,3,0,132.125,132.125,86.3074,-76.7363,1023.51,-999.00,-13.72,yes,no,yes,300025010711760,IMB,CRREL,unknown,North
2012-05-11T04:00:28Z,1336708829,2012,4,0,132.167,132.167,86.3074,-76.7247,1023.62,-999.00,-14.1,yes,no,yes,300025010711760,IMB,CRREL,unknown,North